This is the latest recevied weather packets stored in our database for station/object N5VIS. If no packets are shown the sender has not sent any weather packets the latest 10 day(s).
| Time | Temp. | Humidity | Pressure | Rain* | Wind** | Luminosity | Snow |
|---|---|---|---|---|---|---|---|
| 1777904904 | 21.67° C | 55% | 1019.1 hPa | 0 mm | - | - | - |
| 1777904601 | 21.11° C | 58% | 1019.3 hPa | 0 mm | - | - | - |
| 1777904298 | 21.11° C | 57% | 1019.4 hPa | 0 mm | - | - | - |
| 1777903995 | 21.11° C | 57% | 1019.3 hPa | 0 mm | - | - | - |
| 1777903692 | 21.11° C | 58% | 1019.2 hPa | 0 mm | - | - | - |
| 1777903387 | 21.11° C | 58% | 1019.3 hPa | 0 mm | - | - | - |
| 1777903084 | 21.11° C | 57% | 1019.4 hPa | 0 mm | - | - | - |
| 1777902780 | 20.56° C | 57% | 1019.1 hPa | 0 mm | - | - | - |
| 1777902478 | 20° C | 58% | 1019.4 hPa | 0 mm | - | - | - |
| 1777902175 | 20.56° C | 58% | 1019.2 hPa | 0 mm | - | - | - |
| 1777901873 | 20.56° C | 57% | 1019.4 hPa | 0 mm | - | - | - |
| 1777901570 | 20.56° C | 58% | 1019.2 hPa | 0 mm | - | - | - |
| 1777901267 | 20° C | 59% | 1019.2 hPa | 0 mm | - | - | - |
| 1777900965 | 20.56° C | 57% | 1019.3 hPa | 0 mm | - | - | - |
| 1777900662 | 20.56° C | 56% | 1019 hPa | 0 mm | - | - | - |
| 1777900359 | 20° C | 60% | 1018.8 hPa | 0 mm | - | - | - |
| 1777900056 | 20° C | 55% | 1018.9 hPa | 0 mm | - | - | - |
| 1777899752 | 19.44° C | 55% | 1019 hPa | 0 mm | - | - | - |
| 1777899449 | 19.44° C | 57% | 1018.9 hPa | 0 mm | - | - | - |
| 1777899147 | 19.44° C | 59% | 1018.9 hPa | 0 mm | - | - | - |
| 1777898844 | 18.89° C | 60% | 1018.7 hPa | 0 mm | - | - | - |
| 1777898542 | 19.44° C | 59% | 1018.7 hPa | 0 mm | - | - | - |
| 1777898239 | 19.44° C | 62% | 1018.7 hPa | 0 mm | - | - | - |
| 1777897936 | 18.89° C | 71% | 1018.8 hPa | 0 mm | - | - | - |
| 1777897632 | 18.89° C | 71% | 1018.8 hPa | 0 mm | - | - | - |
* Rain latest hour (hover to see other rain measurements)
** Current wind speed in m/s (hover to see current wind gust speed)